Meath Environmental Platform

Observations for Trim Patrick St

Time AQI Temp °C Hum % Pres Pa CO μg/m³ H₂S μg/m³ NO μg/m³ NO₂ μg/m³ O₃ μg/m³ SO₂ μg/m³ PM1 μg/m³ PM2.5 μg/m³ PM10 μg/m³
Saturday 8 August 2026
14:04 2 29.7 35 69,199 0 0 1.06 10.68 72.4 12.8 2 7.37 8.11
14:03 2 29.7 36 69,185 0 1.7 1.02 11.03 105.01 13.69 2.86 8.12 8.93
14:02 2 29.8 34 69,195 0 0 1.02 14.68 94.83 12.18 2 7.39 8.13
14:01 2 29.8 35 69,206 0 0 1.04 10.78 76.8 13.1 2 7.38 8.12
14:00 2 29.8 35 69,226 0 0 1.06 11.76 73.29 12.12 2 7.38 8.12
13:59 2 29.8 35 69,220 0 0 1.01 10.66 91.87 13.02 2.86 8.94 9.83
13:58 2 29.8 35 69,240 0 0 1.03 10.72 79.36 13.02 2 8.18 9
13:57 2 29.8 35 69,236 0 0 0.98 12.75 96.21 12.53 2.86 8.17 8.98
13:56 2 29.8 34 69,228 0 0 1.02 11.26 76.34 12.58 2.86 9 9.9
13:55 2 29.8 35 69,218 0 0 0.99 11.99 103.04 13.3 2 7.38 8.12
13:54 2 29.8 34 69,212 0 0 1.01 11.13 84.13 12.72 2 7.42 8.16
13:53 2 29.8 34 69,201 0 0 1.02 10.7 71.12 12 2.86 8.19 9.01
13:52 2 29.8 34 69,191 0 0 1.07 11.14 89.44 12.17 2 7.42 8.16
13:51 2 29.8 34 69,173 0 0 1.06 10.38 73.28 12.47 2.86 9.83 10.81
13:50 2 29.8 34 69,179 0 0 1.04 10.92 86.15 13.16 2 8.19 9.01
13:49 2 29.8 35 69,185 0 0 0.99 10.63 88.06 12.22 2 7.36 8.1
13:48 2 29.8 34 69,193 0 0 1.01 10.48 75.13 12.44 2 7.41 8.15
13:47 2 29.8 34 69,206 0 0 1.07 9.39 59.31 12.22 2 8.24 9.06
13:46 2 29.8 34 69,193 0 0 0.97 10.93 77.11 12.14 2 7.4 8.14
13:45 2 29.7 34 69,201 0 0 0.98 13.33 93.64 12.18 2 7.39 8.13